TimeHST,TemperatureF,Dew PointF,Humidity,Sea Level PressureIn,VisibilityMPH,Wind Direction,Wind SpeedMPH,Gust SpeedMPH,PrecipitationIn,Events,Conditions,WindDirDegrees,DateUTC
12:53 AM,75.9,71.1,85,30.03,10.0,East,3.5,-,N/A,,Scattered Clouds,100,2013-12-09 10:53:00
1:53 AM,75.9,70.0,82,30.02,10.0,Calm,Calm,-,N/A,,Partly Cloudy,0,2013-12-09 11:53:00
2:53 AM,73.9,68.0,82,30.03,10.0,North,4.6,-,N/A,,Partly Cloudy,350,2013-12-09 12:53:00
3:53 AM,73.9,66.9,79,30.02,10.0,Calm,Calm,-,N/A,,Partly Cloudy,0,2013-12-09 13:53:00
4:53 AM,73.0,66.9,81,30.01,10.0,Calm,Calm,-,N/A,,Partly Cloudy,0,2013-12-09 14:53:00
5:53 AM,72.0,66.9,84,30.02,10.0,NW,4.6,-,N/A,,Partly Cloudy,320,2013-12-09 15:53:00
6:53 AM,72.0,66.9,84,30.04,10.0,NNW,3.5,-,N/A,,Partly Cloudy,330,2013-12-09 16:53:00
7:53 AM,75.0,68.0,79,30.07,10.0,NNW,4.6,-,N/A,,Scattered Clouds,330,2013-12-09 17:53:00
8:53 AM,80.1,66.9,64,30.09,10.0,NNE,4.6,-,N/A,,Scattered Clouds,20,2013-12-09 18:53:00
9:53 AM,82.9,66.9,58,30.09,10.0,ENE,9.2,-,N/A,,Scattered Clouds,60,2013-12-09 19:53:00
10:53 AM,84.9,68.0,57,30.06,10.0,Variable,5.8,-,N/A,,Mostly Cloudy,0,2013-12-09 20:53:00
11:53 AM,86.0,68.0,55,30.04,10.0,ENE,11.5,-,N/A,,Mostly Cloudy,70,2013-12-09 21:53:00
12:53 PM,87.1,66.9,51,30.01,10.0,ENE,9.2,17.3,N/A,,Mostly Cloudy,70,2013-12-09 22:53:00
1:53 PM,86.0,68.0,55,30.00,10.0,ENE,11.5,-,N/A,,Mostly Cloudy,60,2013-12-09 23:53:00
2:53 PM,86.0,66.9,53,30.00,10.0,ENE,8.1,-,N/A,,Mostly Cloudy,70,2013-12-10 00:53:00
3:53 PM,84.9,68.0,57,30.00,10.0,Variable,5.8,-,N/A,,Mostly Cloudy,0,2013-12-10 01:53:00
4:53 PM,82.0,68.0,62,30.00,10.0,ENE,11.5,16.1,N/A,,Mostly Cloudy,60,2013-12-10 02:53:00
5:53 PM,81.0,69.1,67,30.01,10.0,ENE,10.4,-,N/A,,Mostly Cloudy,70,2013-12-10 03:53:00
6:53 PM,80.1,69.1,69,30.04,10.0,ENE,5.8,-,N/A,,Scattered Clouds,60,2013-12-10 04:53:00
7:53 PM,79.0,69.1,72,30.06,10.0,East,8.1,-,N/A,,Scattered Clouds,80,2013-12-10 05:53:00
8:53 PM,79.0,69.1,72,30.08,10.0,North,3.5,-,N/A,,Scattered Clouds,10,2013-12-10 06:53:00
9:53 PM,78.1,69.1,74,30.09,10.0,NE,9.2,-,N/A,,Mostly Cloudy,50,2013-12-10 07:53:00
10:53 PM,78.1,69.1,74,30.08,10.0,ENE,9.2,-,N/A,,Scattered Clouds,70,2013-12-10 08:53:00
11:53 PM,78.1,69.1,74,30.07,10.0,Calm,Calm,-,N/A,,Mostly Cloudy,0,2013-12-10 09:53:00